STARLINK-35203

Last updated on Mon Oct 06 2025 00:02:05 GMT+0000 (Coordinated Universal Time)

1 65498U 25198G 25278.50001156 -.00096967 00000+0 -17551-2 0 9998 2 65498 53.1587 280.4829 0001126 69.7106 92.0470 15.49340936 5589

Satellite not in orbit

STARLINK-35203